Location: Killam
(52.7910°N, 111.8608°W)
Time: 19:27:40
(UTC+00:00)

Injun/Solrad 3 - Pass Details

Date: 22 February 2026
Orbit: 871 x 985 km, 66.8° (Epoch: 11 March)

Event Time Altitude Azimuth Distance (km) Brightness Sun altitude
Rises 03:26:20 0° 316° (NW) 3,579 11.9 -23.9°
Reaches altitude 10° 03:29:08 10° 306° (NW) 2,650 11.2 -24.3°
Maximum altitude 03:34:19 29° 249° (WSW) 1,668 9.7 -25.1°
Drops below altitude 10° 03:39:36 10° 192° (SSW) 2,698 10.2 -25.8°
Enters shadow 03:41:33 - 184° (S) 3,334 10.7 -26.1°
